Content
SEND FEEDBACK

Daily
Averages
Monthly
Summary
United States of America

NAPERVILLE, ILLINOIS


Home > North America > United States > Illinois
Elevation: 687 feet     Latitude: 41 49N     Longitude: 088 04W

WEATHER
 
SELECT A DAY
Number of Records: 196,551;   Date Range: 1/1/95 - 7/26/14
 
SHARE

PRINT THIS DATA

[ ← Previous Day ]
WEATHER ALMANAC - FEBRUARY 11, 2013
[ Next Day → ]
[ °C ]   °F
Weather ElementAverageHighLow
Temperature33 °F41 °F (1:51 am)28.9 °F (9:51 pm)
Dewpoint23.8 °F32 °F (1:51 am)19.4 °F (7:18 pm)
Humidity68.9 %75 % (2:12 am)64 % (3:26 pm)
Barometer29.76 in30.03 in (11:51 pm)29.52 in (1:51 am)
Wind Speed24.1 mph36.8 mph (3:40 am)
Wind Gust49.5 mph (4:51 am)
Weather ElementAverage
Visibility10 mi
Wind DirectionWSW (263.5 °)

Weather ElementTotal
Precipitation---
Heating Degree Days30.1 (Base 65)
Averaged from 31 records on February 11, 2013
WEATHER CONDITIONS BREAKOUT
WIND DIRECTION BREAKOUT
WEATHER BY HOUR - FEBRUARY 11, 2013
[ °C ]   °F
Local TimeTemperatureDewpointHumidityBarometerVisibilityWind DirectionWind SpeedGust SpeedPrecipitationEventsConditions
1:51 AM41.0 °F32.0 °F70 %29.52 in10.0 miWSW (240°)13.8 mph20.7 mphOvercast
2:12 AM39.2 °F32.0 °F75 %29.52 in10.0 miWSW (240°)25.3 mph40.3 mphOvercast
2:51 AM37.9 °F30.0 °F73 %29.54 in10.0 miWSW (250°)31.1 mphOvercast
3:40 AM35.6 °F26.6 °F70 %29.54 in10.0 miWSW (240°)36.8 mph43.7 mph0.00 inOvercast
3:51 AM36.0 °F27.0 °F70 %29.55 in10.0 miWSW (240°)33.4 mph48.3 mph0.00 inOvercast
4:51 AM35.1 °F25.0 °F67 %29.57 in10.0 miWSW (250°)35.7 mph49.5 mphOvercast
5:51 AM34.0 °F25.0 °F70 %29.59 in10.0 miWest (260°)28.8 mph38.0 mphOvercast
6:29 AM33.8 °F24.8 °F70 %29.59 in10.0 miWSW (240°)29.9 mph41.4 mphOvercast
6:51 AM34.0 °F25.0 °F70 %29.61 in10.0 miWSW (240°)33.4 mph43.7 mphOvercast
7:51 AM34.0 °F25.0 °F70 %29.63 in10.0 miWest (260°)32.2 mph43.7 mphOvercast
8:51 AM34.0 °F25.0 °F70 %29.65 in10.0 miWSW (250°)21.9 mph33.4 mphOvercast
9:04 AM33.8 °F26.6 °F75 %29.65 in10.0 miWest (260°)20.7 mph31.1 mphOvercast
9:51 AM34.0 °F25.0 °F70 %29.69 in10.0 miWSW (250°)27.6 mph42.6 mph0.00 inOvercast
10:51 AM34.0 °F25.0 °F70 %29.71 in10.0 miWest (260°)25.3 mph34.5 mph0.00 inOvercast
11:51 AM33.1 °F25.0 °F72 %29.73 in10.0 miWest (260°)25.3 mph40.3 mphOvercast
12:51 PM33.1 °F24.1 °F70 %29.77 in10.0 miWest (270°)28.8 mph42.6 mphOvercast
1:51 PM32.0 °F23.0 °F69 %29.79 in10.0 miWest (260°)20.7 mph40.3 mphOvercast
2:36 PM32.0 °F23.0 °F69 %29.79 in10.0 miWest (270°)25.3 mph39.1 mphOvercast
2:51 PM32.0 °F23.0 °F69 %29.82 in10.0 miWest (260°)17.3 mph31.1 mphOvercast
3:26 PM32.0 °F21.2 °F64 %29.82 in10.0 miWest (270°)19.6 mph39.1 mphOvercast
3:51 PM32.0 °F21.9 °F66 %29.86 in10.0 miWest (280°)21.9 mph43.7 mphOvercast
4:51 PM32.0 °F22.1 °F67 %29.89 in10.0 miWNW (290°)27.6 mph36.8 mphOvercast
5:51 PM30.9 °F21.0 °F67 %29.93 in10.0 miWest (270°)24.2 mph33.4 mphOvercast
6:51 PM30.9 °F21.0 °F67 %29.96 in10.0 miWest (280°)18.4 mph26.5 mphOvercast
7:18 PM30.2 °F19.4 °F64 %29.95 in10.0 miWest (280°)21.9 mph31.1 mphOvercast
7:48 PM30.2 °F19.4 °F64 %29.95 in10.0 miWest (280°)19.6 mph26.5 mphOvercast
7:51 PM30.0 °F19.9 °F66 %29.97 in10.0 miWest (280°)17.3 mph26.5 mphOvercast
8:51 PM30.0 °F19.9 °F66 %29.98 in10.0 miWNW (290°)15.0 mph25.3 mphOvercast
9:51 PM28.9 °F19.9 °F69 %29.99 in10.0 miWest (280°)16.1 mph25.3 mphOvercast
10:51 PM28.9 °F19.9 °F69 %30.01 in10.0 miWest (280°)17.3 mph23.0 mphOvercast
11:51 PM28.9 °F19.9 °F69 %30.03 in10.0 miWNW (290°)15.0 mphOvercast
Hourly data recorded from KORD, located miles away from Naperville, Illinois







STORIES FROM OUR PARTNERS